{"data":{"norad_id":52839,"epoch":"2026-05-25T02:43:58.361088Z","epoch_age_seconds":61626,"freshness":"FRESH","line1":"1 52839U 22062K   26145.11386992  .00000540  00000+0  52019-4 0  9995","line2":"2 52839  53.2123  51.0400 0001396  96.9690 263.1461 15.08835073217321","mean_motion":15.08835073,"eccentricity":0.0001396,"inclination_deg":53.2123,"raan_deg":51.04,"arg_perigee_deg":96.969,"mean_anomaly_deg":263.1461,"bstar":5.2019e-5,"rev_number":21732,"period_min":95.437866322716,"perigee_km":538.79271066834,"apogee_km":540.72418707767,"semimajor_km":6917.895448873,"source":"CELESTRAK","updated_at":"2026-05-25T13:38:17.242365Z"}}